Flag for U.S.A. Weather past 2 weeks in Spartanburg, South Carolina, U.S.A.

Now
46 °F

Clear.


Feels Like: 46 °F
Forecast: 45 / 65 °F
Wind: No wind

Location: Spartanburg Memorial

Current Time: Oct 22, 2014 at 4:37:39 AM

Latest Report: Oct 22, 2014 at 4:15 AM


Visibility: 10 mi

Pressure: 30.00 "Hg

Humidity: 71%

Dew point: 37 °F

Location of SpartanburgLocation

Historic Weather in Spartanburg — Graph

°F

Spartanburg temperature yesterday

Maximum temperature yesterday: 77 °F (at 4:35 PM)
Minimum temperature yesterday: 50 °F (at 8:15 AM)
Average temperature yesterday: 62 °F

Past Weeks' High & Low Weather Summary

 TemperatureHumidityPressure
High88 °F (Oct 8, 3:15 PM)100% (Oct 7, 7:15 AM)30.25 "Hg (Oct 7, 7:15 AM)
Low43 °F (Oct 20, 7:15 AM)28% (Oct 9, 2:15 PM)29.79 "Hg (Oct 16, 6:15 AM)
Average65 °F67%30.00 "Hg
* Reported Oct 7 3:15 AM — Oct 22 3:35 AM, Spartanburg, Weather by CustomWeather, © 2014

Note: Actual official high and low records may vary slightly from our data, if they occured in-between our weather recording intervals... More about our weather records

Advertising

Spartanburg weather history for previous 24 hours

 ConditionsComfort  
Time TempWeatherWind HumidityBarometerVisibility
3:35 AM
Oct 22
50 °FClear.No wind62%29.99 "Hg10 mi
3:15 AM46 °FClear.No wind71%29.99 "Hg10 mi
2:35 AM52 °FClear.No wind58%30.00 "Hg10 mi
2:15 AM54 °FClear.No wind51%29.99 "Hg10 mi
1:35 AM55 °FClear.8 mph51%29.99 "Hg10 mi
1:15 AM57 °FClear.13 mph44%29.99 "Hg10 mi
12:35 AM59 °FClear.17 mph42%29.98 "Hg10 mi
12:15 AM59 °FClear.10 mph45%29.99 "Hg10 mi
11:35 PM
Oct 21
61 °FClear.13 mph42%29.98 "Hg10 mi
11:15 PM63 °FClear.12 mph39%29.98 "Hg10 mi
10:35 PM63 °FClear.15 mph39%29.97 "Hg10 mi
10:15 PM63 °FClear.12 mph42%29.96 "Hg10 mi
9:35 PM63 °FClear.7 mph45%29.95 "Hg10 mi
9:15 PM63 °FClear.7 mph45%29.94 "Hg10 mi
8:35 PM63 °FClear.8 mph45%29.94 "Hg10 mi
8:15 PM64 °FPassing clouds.7 mph43%29.93 "Hg10 mi
7:35 PM66 °FScattered clouds.7 mph43%29.91 "Hg10 mi
7:15 PM66 °FSunny.6 mph43%29.90 "Hg10 mi
6:35 PM70 °FScattered clouds.9 mph38%29.89 "Hg10 mi
6:15 PM72 °FScattered clouds.9 mph36%29.89 "Hg10 mi
5:35 PM73 °FPartly sunny.5 mph38%29.87 "Hg10 mi
5:15 PM73 °FPartly sunny.3 mph38%29.87 "Hg10 mi
4:35 PM77 °FPartly sunny.5 mph32%29.87 "Hg10 mi
4:15 PM73 °FPartly sunny.7 mph36%29.87 "Hg10 mi
3:35 PM75 °FScattered clouds.3 mph36%29.87 "Hg10 mi
3:15 PM73 °FSunny.No wind36%29.87 "Hg10 mi
2:35 PM75 °FScattered clouds.6 mph39%29.89 "Hg10 mi
2:15 PM73 °FSunny.7 mph38%29.90 "Hg10 mi
1:35 PM73 °FSunny.6 mph41%29.92 "Hg10 mi
1:15 PM73 °FSunny.10 mph41%29.93 "Hg10 mi
12:35 PM72 °FSunny.5 mph50%29.94 "Hg10 mi
12:15 PM70 °FSunny.3 mph53%29.95 "Hg10 mi
11:35 AM68 °FSunny.5 mph49%29.96 "Hg10 mi
11:15 AM66 °FSunny.3 mph56%29.96 "Hg10 mi
10:35 AM63 °FSunny.3 mph68%29.98 "Hg10 mi
10:15 AM63 °FSunny.3 mph68%29.98 "Hg10 mi
9:35 AM57 °FSunny.No wind88%29.98 "Hg10 mi
9:15 AM54 °FSunny.No wind100%29.97 "Hg10 mi
8:35 AM50 °FClear.3 mphN/A29.96 "Hg10 mi
8:15 AM50 °FClear.3 mphN/A29.96 "Hg10 mi
7:35 AM52 °FClear.No windN/A29.96 "Hg7 mi
7:15 AM52 °FClear.No windN/A29.96 "Hg7 mi
6:35 AM52 °FClear.3 mphN/A29.95 "Hg4 mi
6:15 AM52 °FClear.No windN/A29.94 "Hg5 mi
5:35 AM54 °FClear.No windN/A29.95 "Hg10 mi
5:15 AM54 °FClear.No windN/A29.94 "Hg10 mi
4:35 AM54 °FClear.3 mphN/A29.95 "Hg10 mi
4:15 AM54 °FClear.3 mphN/A29.95 "Hg10 mi
Weather by CustomWeather, © 2014

See weather overviewHow to use our weather pages